sat.trackr.live / text

‹ back to catalog

2024-199K

NORAD 61744 · 2024-199K

PAYLOAD ACTIVE UNKNOWN

§ Identity

Operator
Country
TBD
Launch date
2024-11-04
Launch site
VOSTO
Launch vehicle
Mass (kg)
RCS (m²)

External: N2YO · Heavens-Above · Gunter

§ Orbital elements

Epoch: 2026-09-22T21:07:21.792576Z

Period
92.45 min
Inclination
97.2768°
Eccentricity
0.0003957
Mean motion
15.57639532 rev/d
Perigee alt
391.8 km
Apogee alt
397.2 km
Semi-major
6,772.6 km
B*
4.2257e-4
RAAN
142.8599°
Arg perigee
275.7686°
Mean anomaly
84.3118°
Rev number
14,954

§ Raw data

2024-199K1 61744U 24199K   26265.88011334  .00031206  00000+0  42257-3 0  99902 61744  97.2768 142.8599 0003957 275.7686  84.3118 15.57639532149540

JSON: /api/v1/satellites/61744 · /tle

For live sub-satellite position, see the globe view (requires WebGL).

§ Visibility from observer

Set your observer location to see the next 7 days of passes ≥ 10°. The values pass through the URL so the page stays shareable.

No JS? Fill the form by hand. The geolocation button needs JavaScript.